This is the latest recevied weather packets stored in our database for station/object KC8UZG. If no packets are shown the sender has not sent any weather packets the latest 1 day(s).
| Time | Temp. | Humidity | Pressure | Rain* | Wind** | Luminosity | Snow |
|---|---|---|---|---|---|---|---|
| 1778027115 | 12.22° C | 99% | 1007 hPa | 3.3 mm | 0.89 m/s, 319° | 0 W/m² | - |
| 1778026520 | 12.22° C | 99% | 1006.9 hPa | 3.05 mm | 0.89 m/s, 116° | 0 W/m² | - |
| 1778025927 | 15° C | 99% | 1006.7 hPa | 2.54 mm | 0.45 m/s, 266° | 0 W/m² | - |
| 1778025333 | 15° C | 99% | 1006.3 hPa | 2.79 mm | 0 m/s | 0 W/m² | - |
| 1778024739 | 15° C | 99% | 1006.3 hPa | 4.06 mm | 0 m/s | 0 W/m² | - |
| 1778024117 | 15° C | 99% | 1006.3 hPa | 6.1 mm | 0 m/s | 0 W/m² | - |
| 1778023524 | 15° C | 99% | 1006.3 hPa | 6.86 mm | 0 m/s | 3 W/m² | - |
| 1778022929 | 15° C | 99% | 1006.3 hPa | 6.86 mm | 0 m/s | 1 W/m² | - |
| 1778022336 | 15° C | 99% | 1006.5 hPa | 6.86 mm | 0 m/s | 0 W/m² | - |
| 1778021742 | 15° C | 99% | 1006.8 hPa | 6.1 mm | 0 m/s | 1 W/m² | - |
| 1778021120 | 15° C | 99% | 1007 hPa | 4.57 mm | 0 m/s | 7 W/m² | - |
| 1778020527 | 15° C | 99% | 1007 hPa | 2.03 mm | 0 m/s | 5 W/m² | - |
| 1778019933 | 15° C | 99% | - | 1.02 mm | 0 m/s | 3 W/m² | - |
| 1778019339 | 15° C | 99% | 1007.3 hPa | 0.25 mm | 0 m/s | 2 W/m² | - |
| 1778018718 | 15° C | 99% | 1007.3 hPa | 0.25 mm | 0 m/s | 5 W/m² | - |
| 1778018126 | 15° C | 99% | - | 0.25 mm | 0 m/s | 3 W/m² | - |
| 1778017530 | 15° C | 99% | 1007.3 hPa | 0.25 mm | 0 m/s | 7 W/m² | - |
| 1778016936 | 15° C | 99% | - | 0.25 mm | 0 m/s | 7 W/m² | - |
| 1778016341 | 15° C | 99% | - | 0.51 mm | 0 m/s | 13 W/m² | - |
| 1778015720 | 15° C | 99% | 1007 hPa | 1.02 mm | 0 m/s | 11 W/m² | - |
| 1778015127 | 15° C | 99% | 1007 hPa | 1.02 mm | 0 m/s | 14 W/m² | - |
| 1778014532 | 15° C | 99% | 1007 hPa | 1.52 mm | 0 m/s | 25 W/m² | - |
| 1778013938 | 15° C | 99% | 1007.3 hPa | 2.54 mm | 0 m/s | 28 W/m² | - |
| 1778013317 | 15° C | 99% | 1007.3 hPa | 3.3 mm | 0 m/s | 22 W/m² | - |
| 1778012723 | 15° C | 99% | 1007.6 hPa | 3.05 mm | 0 m/s | 43 W/m² | - |
* Rain latest hour (hover to see other rain measurements)
** Current wind speed in m/s (hover to see current wind gust speed)